When you browse on this site, cookies collect data to enhance your experience and personalize the content and advertising you see.
Visit our Privacy Policy to learn more. By continuing to use the site, you agree to this use of cookies and data.

Hourly Weather Serowe

Today, 14 July, Tuesday

Time Temperature Precipitation Wind Pressure Humidity
00:00 +10°C° 0 mm 1 mps 666 mmHg 22%
01:00 +9°C° 0 mm 2 mps 666 mmHg 22%
02:00 +9°C° 0 mm 2 mps 666 mmHg 22%
03:00 +8°C° 0 mm 2 mps 666 mmHg 22%
04:00 +8°C° 0 mm 2 mps 666 mmHg 22%
05:00 +8°C° 0 mm 2 mps 666 mmHg 22%
06:00 +9°C° 0 mm 2 mps 667 mmHg 21%
07:00 +10°C° 0 mm 2 mps 667 mmHg 21%
08:00 +11°C° 0 mm 3 mps 668 mmHg 19%
09:00 +16°C° 0 mm 3 mps 669 mmHg 16%
10:00 +19°C° 0 mm 3 mps 670 mmHg 13%
11:00 +22°C° 0 mm 4 mps 670 mmHg 10%
12:00 +23°C° 0 mm 4 mps 670 mmHg 9%
13:00 +25°C° 0 mm 5 mps 670 mmHg 8%
14:00 +26°C° 0 mm 6 mps 670 mmHg 6%
15:00 +25°C° 0 mm 5 mps 669 mmHg 8%
16:00 +22°C° 0 mm 5 mps 669 mmHg 10%
17:00 +21°C° 0 mm 5 mps 669 mmHg 12%
18:00 +18°C° 0 mm 4 mps 669 mmHg 17%
19:00 +14°C° 0 mm 3 mps 669 mmHg 22%
20:00 +11°C° 0 mm 3 mps 669 mmHg 26%
21:00 +10°C° 0 mm 3 mps 669 mmHg 28%
22:00 +10°C° 0 mm 4 mps 670 mmHg 30%
23:00 +8°C° 0 mm 5 mps 670 mmHg 31%

Tomorrow, 15 July, Wednesday

Time Temperature Precipitation Wind Pressure Humidity
00:00 +7°C° 0 mm 5 mps 670 mmHg 35%
01:00 +6°C° 0 mm 5 mps 670 mmHg 38%
02:00 +5°C° 0 mm 5 mps 671 mmHg 41%
03:00 +3°C° 0 mm 5 mps 671 mmHg 43%
04:00 +2°C° 0 mm 5 mps 671 mmHg 45%
05:00 +3°C° 0 mm 4 mps 671 mmHg 47%
06:00 +2°C° 0 mm 5 mps 671 mmHg 45%
07:00 +3°C° 0 mm 5 mps 672 mmHg 42%
08:00 +3°C° 0 mm 6 mps 673 mmHg 39%
09:00 +7°C° 0 mm 6 mps 674 mmHg 40%
10:00 +9°C° 0 mm 6 mps 674 mmHg 41%
11:00 +12°C° 0 mm 7 mps 675 mmHg 42%
12:00 +14°C° 0 mm 7 mps 675 mmHg 44%
13:00 +15°C° 0 mm 7 mps 675 mmHg 46%
14:00 +16°C° 0 mm 8 mps 674 mmHg 49%
15:00 +15°C° 0 mm 8 mps 674 mmHg 50%
16:00 +14°C° 0 mm 7 mps 674 mmHg 52%
17:00 +12°C° 0 mm 7 mps 674 mmHg 54%
18:00 +10°C° 0 mm 6 mps 674 mmHg 60%
19:00 +8°C° 0 mm 5 mps 675 mmHg 66%
20:00 +7°C° 0 mm 4 mps 675 mmHg 72%
21:00 +6°C° 0 mm 4 mps 675 mmHg 72%
22:00 +6°C° 0 mm 5 mps 676 mmHg 72%
23:00 +5°C° 0 mm 5 mps 676 mmHg 72%

Day after tomorrow, 16 July, Thursday

Time Temperature Precipitation Wind Pressure Humidity
00:00 +5°C° 0 mm 5 mps 676 mmHg 70%
01:00 +3°C° 0 mm 5 mps 676 mmHg 68%
02:00 +3°C° 0 mm 5 mps 675 mmHg 66%
03:00 +3°C° 0 mm 5 mps 675 mmHg 68%
04:00 +2°C° 0 mm 5 mps 675 mmHg 70%
05:00 +2°C° 0 mm 5 mps 675 mmHg 72%
06:00 +2°C° 0 mm 6 mps 676 mmHg 75%
07:00 +3°C° 0 mm 6 mps 676 mmHg 78%
08:00 +3°C° 0 mm 7 mps 677 mmHg 81%
09:00 +5°C° 0 mm 7 mps 677 mmHg 67%
10:00 +9°C° 0 mm 7 mps 678 mmHg 53%
11:00 +11°C° 0 mm 7 mps 678 mmHg 39%
12:00 +14°C° 0 mm 7 mps 678 mmHg 36%
13:00 +15°C° 0 mm 7 mps 677 mmHg 33%
14:00 +16°C° 0 mm 6 mps 677 mmHg 30%
15:00 +16°C° 0 mm 6 mps 676 mmHg 30%
16:00 +15°C° 0 mm 6 mps 676 mmHg 30%
17:00 +15°C° 0 mm 5 mps 676 mmHg 30%
18:00 +12°C° 0 mm 4 mps 675 mmHg 39%
19:00 +10°C° 0 mm 3 mps 675 mmHg 47%
20:00 +7°C° 0 mm 2 mps 675 mmHg 56%
21:00 +7°C° 0 mm 2 mps 675 mmHg 61%
22:00 +5°C° 0 mm 3 mps 675 mmHg 66%
23:00 +4°C° 0 mm 3 mps 675 mmHg 72%

17 July, Friday

Time Temperature Precipitation Wind Pressure Humidity
00:00 +4°C° 0 mm 3 mps 675 mmHg 77%
01:00 +3°C° 0 mm 3 mps 675 mmHg 82%
02:00 +3°C° 0 mm 3 mps 675 mmHg 87%
03:00 +2°C° 0 mm 3 mps 674 mmHg 89%
04:00 +3°C° 0 mm 2 mps 674 mmHg 91%
05:00 +3°C° 0 mm 2 mps 674 mmHg 93%
06:00 +3°C° 0 mm 2 mps 674 mmHg 91%
07:00 +4°C° 0 mm 2 mps 675 mmHg 89%
08:00 +4°C° 0 mm 3 mps 675 mmHg 88%
09:00 +8°C° 0 mm 3 mps 675 mmHg 72%
10:00 +11°C° 0 mm 4 mps 676 mmHg 56%
11:00 +14°C° 0 mm 5 mps 676 mmHg 40%
12:00 +16°C° 0 mm 5 mps 676 mmHg 34%
13:00 +19°C° 0 mm 4 mps 675 mmHg 27%
14:00 +20°C° 0 mm 4 mps 675 mmHg 21%
15:00 +20°C° 0 mm 4 mps 674 mmHg 21%
16:00 +19°C° 0 mm 4 mps 674 mmHg 21%
17:00 +19°C° 0 mm 4 mps 673 mmHg 21%
18:00 +16°C° 0 mm 3 mps 673 mmHg 28%
19:00 +12°C° 0 mm 3 mps 673 mmHg 34%
20:00 +9°C° 0 mm 2 mps 672 mmHg 41%
21:00 +9°C° 0 mm 2 mps 672 mmHg 46%
22:00 +8°C° 0 mm 2 mps 672 mmHg 50%
23:00 +8°C° 0 mm 1 mps 672 mmHg 55%

18 July, Saturday

Time Temperature Precipitation Wind Pressure Humidity
00:00 +7°C° 0 mm 1 mps 672 mmHg 58%
01:00 +7°C° 0 mm 1 mps 672 mmHg 62%
02:00 +6°C° 0 mm 1 mps 672 mmHg 65%
03:00 +6°C° 0 mm 1 mps 671 mmHg 69%
04:00 +5°C° 0 mm 1 mps 671 mmHg 74%
05:00 +5°C° 0 mm 1 mps 671 mmHg 78%
06:00 +6°C° 0 mm 1 mps 672 mmHg 74%
07:00 +7°C° 0 mm 1 mps 673 mmHg 71%
08:00 +7°C° 0 mm 2 mps 673 mmHg 67%
09:00 +10°C° 0 mm 2 mps 674 mmHg 54%
10:00 +14°C° 0 mm 3 mps 674 mmHg 42%
11:00 +18°C° 0 mm 4 mps 675 mmHg 29%
12:00 +20°C° 0 mm 4 mps 674 mmHg 24%
13:00 +22°C° 0 mm 4 mps 674 mmHg 20%
14:00 +23°C° 0 mm 4 mps 673 mmHg 15%
15:00 +23°C° 0 mm 4 mps 673 mmHg 16%
16:00 +22°C° 0 mm 4 mps 672 mmHg 16%
17:00 +21°C° 0 mm 4 mps 672 mmHg 17%
18:00 +18°C° 0 mm 3 mps 672 mmHg 23%
19:00 +15°C° 0 mm 2 mps 671 mmHg 28%
20:00 +12°C° 0 mm 2 mps 671 mmHg 34%
21:00 +10°C° 0 mm 2 mps 671 mmHg 39%
22:00 +10°C° 0 mm 1 mps 671 mmHg 44%
23:00 +9°C° 0 mm 1 mps 671 mmHg 49%

19 July, Sunday

Time Temperature Precipitation Wind Pressure Humidity
00:00 +9°C° 0 mm 1 mps 670 mmHg 52%
01:00 +8°C° 0 mm 1 mps 670 mmHg 55%
02:00 +8°C° 0 mm 1 mps 670 mmHg 58%
03:00 +7°C° 0 mm 1 mps 670 mmHg 60%
04:00 +7°C° 0 mm 1 mps 669 mmHg 63%
05:00 +7°C° 0 mm 1 mps 669 mmHg 65%
06:00 +8°C° 0 mm 1 mps 670 mmHg 60%
07:00 +9°C° 0 mm 1 mps 671 mmHg 55%
08:00 +11°C° 0 mm 1 mps 672 mmHg 50%
09:00 +14°C° 0 mm 2 mps 673 mmHg 41%
10:00 +17°C° 0 mm 2 mps 673 mmHg 31%
11:00 +21°C° 0 mm 3 mps 674 mmHg 22%
12:00 +22°C° 0 mm 4 mps 673 mmHg 19%
13:00 +23°C° 0 mm 4 mps 673 mmHg 16%
14:00 +26°C° 0 mm 4 mps 672 mmHg 13%
15:00 +25°C° 0 mm 4 mps 672 mmHg 13%
16:00 +23°C° 0 mm 4 mps 671 mmHg 13%
17:00 +24°C° 0 mm 3 mps 671 mmHg 14%
18:00 +19°C° 0 mm 3 mps 671 mmHg 19%
19:00 +16°C° 0 mm 3 mps 670 mmHg 24%
20:00 +13°C° 0 mm 2 mps 670 mmHg 29%
21:00 +12°C° 0 mm 2 mps 670 mmHg 32%
22:00 +12°C° 0 mm 2 mps 670 mmHg 36%
23:00 +10°C° 0 mm 2 mps 670 mmHg 39%
Show more